| time (UTC) | temp C | wind direction | speed KPH | gust KPH | rain 1hr cm | rain 24hr cm | rain mn cm | humidity % | barometer mb |
| 20260506135535 | 1 | 317 | 11.3 | 20.9 | 0.00 | 0.00 | 0.00 | 52 | 986.6 |
| 20260506135035 | 1 | 325 | 12.9 | 20.9 | 0.00 | 0.00 | 0.00 | 52 | 986.8 |
| 20260506134535 | 1 | 290 | 12.9 | 17.7 | 0.00 | 0.00 | 0.00 | 52 | 986.8 |
| 20260506134035 | 1 | 342 | 11.3 | 16.1 | 0.00 | 0.00 | 0.00 | 52 | 986.8 |
| 20260506133535 | 1 | 292 | 9.7 | 17.7 | 0.00 | 0.00 | 0.00 | 52 | 986.7 |
| 20260506133034 | 1 | 309 | 11.3 | 17.7 | 0.00 | 0.00 | 0.00 | 52 | 986.7 |
| 20260506132532 | 1 | 292 | 8.0 | 17.7 | 0.00 | 0.00 | 0.00 | 52 | 986.7 |
| 20260506132032 | 1 | 244 | 8.0 | 19.3 | 0.00 | 0.00 | 0.00 | 53 | 986.7 |
| 20260506131534 | 1 | 292 | 12.9 | 19.3 | 0.00 | 0.00 | 0.00 | 53 | 986.7 |
| 20260506131028 | 1 | 309 | 8.0 | 17.7 | 0.00 | 0.00 | 0.00 | 53 | 986.8 |
| 20260506130529 | 1 | 336 | 8.0 | 17.7 | 0.00 | 0.00 | 0.00 | 53 | 986.7 |
| 20260506130029 | 0 | 308 | 9.7 | 16.1 | 0.00 | 0.00 | 0.00 | 53 | 986.6 |
| 20260506125526 | 0 | 294 | 6.4 | 12.9 | 0.00 | 0.00 | 0.00 | 53 | 986.6 |
| 20260506125027 | 0 | 286 | 8.0 | 14.5 | 0.00 | 0.00 | 0.00 | 53 | 986.7 |
| 20260506124525 | 0 | 292 | 4.8 | 14.5 | 0.00 | 0.00 | 0.00 | 53 | 986.6 |
| 20260506124027 | 0 | 286 | 6.4 | 12.9 | 0.00 | 0.00 | 0.00 | 54 | 986.6 |
| 20260506123524 | 0 | 260 | 4.8 | 11.3 | 0.00 | 0.00 | 0.00 | 54 | 986.6 |
| 20260506123023 | 0 | 271 | 6.4 | 12.9 | 0.00 | 0.00 | 0.00 | 54 | 986.6 |
| 20260506122523 | 0 | 276 | 6.4 | 12.9 | 0.00 | 0.00 | 0.00 | 55 | 986.6 |
| 20260506122021 | 0 | 275 | 6.4 | 12.9 | 0.00 | 0.00 | 0.00 | 55 | 986.6 |
| 20260506121521 | 0 | 267 | 6.4 | 11.3 | 0.00 | 0.00 | 0.00 | 56 | 986.5 |
| 20260506121020 | 0 | 265 | 4.8 | 8.0 | 0.00 | 0.00 | 0.00 | 56 | 986.5 |
| 20260506120521 | 0 | 278 | 4.8 | 11.3 | 0.00 | 0.00 | 0.00 | 56 | 986.4 |
| 20260506120029 | 0 | 255 | 4.8 | 11.3 | 0.00 | 0.00 | 0.00 | 56 | 986.3 |
| 20260506115521 | 0 | 269 | 3.2 | 9.7 | 0.00 | 0.00 | 0.00 | 55 | 986.4 |
| 20260506115020 | 0 | 272 | 3.2 | 6.4 | 0.00 | 0.00 | 0.00 | 56 | 986.3 |
| 20260506114521 | 0 | 260 | 3.2 | 8.0 | 0.00 | 0.00 | 0.00 | 55 | 986.3 |
| 20260506114020 | 0 | 254 | 4.8 | 8.0 | 0.00 | 0.00 | 0.00 | 55 | 986.4 |
| 20260506113520 | 0 | 271 | 3.2 | 8.0 | 0.00 | 0.00 | 0.00 | 56 | 986.3 |
| 20260506113020 | 0 | 239 | 4.8 | 8.0 | 0.00 | 0.00 | 0.00 | 56 | 986.2 |
| 20260506112519 | 0 | 245 | 4.8 | 6.4 | 0.00 | 0.00 | 0.00 | 56 | 986.2 |
| 20260506112019 | 0 | 254 | 3.2 | 6.4 | 0.00 | 0.00 | 0.00 | 56 | 986.3 |
| 20260506111523 | 0 | 254 | 4.8 | 6.4 | 0.00 | 0.00 | 0.00 | 56 | 986.3 |
| 20260506111019 | 0 | 277 | 1.6 | 4.8 | 0.00 | 0.00 | 0.00 | 56 | 986.3 |
| 20260506110518 | 0 | 277 | 1.6 | 4.8 | 0.00 | 0.00 | 0.00 | 56 | 986.3 |
| 20260506110019 | 0 | 277 | 1.6 | 4.8 | 0.00 | 0.00 | 0.00 | 56 | 986.2 |
| 20260506105519 | 0 | 277 | 1.6 | 4.8 | 0.00 | 0.00 | 0.00 | 56 | 986.2 |
| 20260506105018 | 0 | 277 | 1.6 | 4.8 | 0.00 | 0.00 | 0.00 | 56 | 986.3 |
| 20260506104518 | 0 | 277 | 1.6 | 4.8 | 0.00 | 0.00 | 0.00 | 56 | 986.2 |
| 20260506104018 | 0 | 277 | 0.0 | 4.8 | 0.00 | 0.00 | 0.00 | 56 | 986.2 |
| 20260506103518 | 0 | 277 | 1.6 | 4.8 | 0.00 | 0.00 | 0.00 | 56 | 986.2 |
| 20260506103021 | 0 | 277 | 1.6 | 6.4 | 0.00 | 0.00 | 0.00 | 56 | 986.3 |
| 20260506102521 | 0 | 277 | 1.6 | 6.4 | 0.00 | 0.00 | 0.00 | 56 | 986.3 |
| 20260506102018 | 0 | 277 | 3.2 | 6.4 | 0.00 | 0.00 | 0.00 | 56 | 986.2 |
| 20260506101519 | 0 | 277 | 3.2 | 4.8 | 0.00 | 0.00 | 0.00 | 56 | 986.3 |
| 20260506101017 | 0 | 277 | 1.6 | 6.4 | 0.00 | 0.00 | 0.00 | 56 | 986.4 |
| 20260506100517 | 0 | 301 | 3.2 | 8.0 | 0.00 | 0.00 | 0.00 | 56 | 986.4 |
| 20260506100017 | 0 | 256 | 3.2 | 8.0 | 0.00 | 0.00 | 0.00 | 56 | 986.4 |
| 20260506095519 | 0 | 281 | 3.2 | 6.4 | 0.00 | 0.00 | 0.00 | 56 | 986.5 |
| 20260506095016 | 0 | 261 | 3.2 | 6.4 | 0.00 | 0.00 | 0.00 | 56 | 986.5 |
| 20260506094517 | 0 | 261 | 3.2 | 6.4 | 0.00 | 0.00 | 0.00 | 56 | 986.4 |
| 20260506094017 | 0 | 289 | 1.6 | 6.4 | 0.00 | 0.00 | 0.00 | 56 | 986.4 |
| 20260506093519 | 0 | 298 | 3.2 | 8.0 | 0.00 | 0.00 | 0.00 | 56 | 986.4 |
| 20260506093028 | 0 | 304 | 4.8 | 8.0 | 0.00 | 0.00 | 0.00 | 56 | 986.4 |
| 20260506092516 | 0 | 284 | 4.8 | 8.0 | 0.00 | 0.00 | 0.00 | 56 | 986.4 |
| 20260506092018 | 0 | 294 | 3.2 | 9.7 | 0.00 | 0.00 | 0.00 | 56 | 986.4 |
| 20260506091516 | 0 | 275 | 3.2 | 9.7 | 0.00 | 0.00 | 0.00 | 56 | 986.3 |
| 20260506091015 | 0 | 254 | 4.8 | 6.4 | 0.00 | 0.00 | 0.00 | 56 | 986.2 |
| 20260506090514 | 0 | 281 | 3.2 | 6.4 | 0.00 | 0.00 | 0.00 | 56 | 986.3 |
| 20260506090014 | 0 | 267 | 1.6 | 8.0 | 0.00 | 0.00 | 0.00 | 56 | 986.3 |
| 20260506085516 | 0 | 296 | 4.8 | 8.0 | 0.00 | 0.00 | 0.00 | 56 | 986.4 |
| 20260506085014 | 0 | 295 | 4.8 | 8.0 | 0.00 | 0.00 | 0.00 | 56 | 986.3 |
| 20260506084516 | 0 | 292 | 3.2 | 11.3 | 0.00 | 0.00 | 0.00 | 56 | 986.3 |
| 20260506084017 | 0 | 279 | 4.8 | 11.3 | 0.00 | 0.00 | 0.00 | 56 | 986.2 |
| 20260506083514 | 0 | 304 | 4.8 | 12.9 | 0.00 | 0.00 | 0.00 | 56 | 986.3 |
| 20260506083014 | 0 | 292 | 6.4 | 12.9 | 0.00 | 0.00 | 0.00 | 56 | 986.3 |
| 20260506082518 | 0 | 297 | 4.8 | 9.7 | 0.00 | 0.00 | 0.00 | 56 | 986.3 |
| 20260506082013 | 0 | 294 | 6.4 | 12.9 | 0.00 | 0.00 | 0.00 | 56 | 986.3 |
| 20260506081512 | 0 | 296 | 4.8 | 12.9 | 0.00 | 0.00 | 0.00 | 56 | 986.3 |
| 20260506081016 | 0 | 292 | 6.4 | 12.9 | 0.00 | 0.00 | 0.00 | 56 | 986.3 |
| 20260506080512 | 0 | 296 | 6.4 | 14.5 | 0.00 | 0.00 | 0.00 | 55 | 986.3 |
| 20260506073512 | 0 | 323 | 6.4 | 12.9 | 0.00 | 0.00 | 0.00 | 55 | 986.3 |
| 20260506073010 | 0 | 281 | 4.8 | 12.9 | 0.00 | 0.00 | 0.00 | 54 | 986.3 |
| 20260506072508 | 0 | 298 | 3.2 | 11.3 | 0.00 | 0.00 | 0.00 | 54 | 986.3 |
| 20260506072009 | 0 | 273 | 6.4 | 12.9 | 0.00 | 0.00 | 0.00 | 54 | 986.3 |
| 20260506071508 | 0 | 286 | 4.8 | 12.9 | 0.00 | 0.00 | 0.00 | 54 | 986.3 |
| 20260506071006 | 0 | 290 | 4.8 | 9.7 | 0.00 | 0.00 | 0.00 | 54 | 986.4 |
| 20260506070505 | 0 | 300 | 4.8 | 9.7 | 0.00 | 0.00 | 0.00 | 55 | 986.4 |
| 20260506062500 | -1 | 277 | 3.2 | 8.0 | 0.00 | 0.00 | 0.00 | 56 | 986.4 |
| 20260506062100 | -1 | 277 | 1.6 | 6.4 | 0.00 | 0.00 | 0.00 | 56 | 986.4 |
| 20260506061605 | -1 | 277 | 3.2 | 6.4 | 0.00 | 0.00 | 0.00 | 56 | 986.5 |
| 20260506061059 | -1 | 294 | 1.6 | 8.0 | 0.00 | 0.00 | 0.00 | 56 | 986.5 |
| 20260506060558 | -1 | 292 | 3.2 | 8.0 | 0.00 | 0.00 | 0.00 | 56 | 986.4 |
| 20260506051054 | -1 | 273 | 3.2 | 4.8 | 0.00 | 0.00 | 0.00 | 56 | 986.4 |
| 20260506050554 | -1 | 266 | 1.6 | 4.8 | 0.00 | 0.00 | 0.00 | 56 | 986.4 |
| 20260506045054 | -1 | 269 | 3.2 | 6.4 | 0.00 | 0.00 | 0.00 | 56 | 986.5 |
| 20260506044604 | -1 | 290 | 1.6 | 6.4 | 0.00 | 0.00 | 0.00 | 56 | 986.4 |
| 20260506044052 | -1 | 281 | 1.6 | 6.4 | 0.00 | 0.00 | 0.00 | 56 | 986.5 |
| 20260506043556 | -1 | 280 | 3.2 | 6.4 | 0.00 | 0.00 | 0.00 | 56 | 986.5 |
| 20260506043054 | -1 | 265 | 3.2 | 9.7 | 0.00 | 0.00 | 0.00 | 56 | 986.6 |
| 20260506042552 | -1 | 271 | 3.2 | 9.7 | 0.00 | 0.00 | 0.00 | 56 | 986.5 |
| 20260506042052 | -1 | 289 | 3.2 | 6.4 | 0.00 | 0.00 | 0.00 | 56 | 986.5 |
| 20260506041605 | -1 | 288 | 3.2 | 6.4 | 0.00 | 0.00 | 0.00 | 56 | 986.5 |
| 20260506041054 | -1 | 289 | 3.2 | 6.4 | 0.00 | 0.00 | 0.00 | 56 | 986.5 |
| 20260506040551 | 0 | 293 | 3.2 | 6.4 | 0.00 | 0.00 | 0.00 | 56 | 986.6 |
| 20260506040055 | 0 | 288 | 3.2 | 6.4 | 0.00 | 0.00 | 0.00 | 56 | 986.6 |
| 20260506035551 | 0 | 302 | 4.8 | 8.0 | 0.00 | 0.00 | 0.00 | 55 | 986.6 |
| 20260506035052 | 0 | 305 | 4.8 | 8.0 | 0.00 | 0.00 | 0.00 | 55 | 986.6 |
| 20260506034551 | 0 | 286 | 4.8 | 8.0 | 0.00 | 0.00 | 0.00 | 55 | 986.5 |
| 20260506034050 | 0 | 290 | 3.2 | 8.0 | 0.00 | 0.00 | 0.00 | 55 | 986.6 |
| 20260506033550 | 0 | 277 | 3.2 | 9.7 | 0.00 | 0.00 | 0.00 | 55 | 986.6 |
| 20260506033052 | 0 | 315 | 4.8 | 9.7 | 0.00 | 0.00 | 0.00 | 54 | 986.6 |
| 20260506032550 | 0 | 302 | 4.8 | 9.7 | 0.00 | 0.00 | 0.00 | 54 | 986.5 |
| 20260506032050 | 0 | 295 | 3.2 | 8.0 | 0.00 | 0.00 | 0.00 | 54 | 986.5 |
| 20260506031549 | 0 | 329 | 3.2 | 8.0 | 0.00 | 0.00 | 0.00 | 54 | 986.6 |
| 20260506031051 | 0 | 307 | 4.8 | 8.0 | 0.00 | 0.00 | 0.00 | 54 | 986.5 |
| 20260506030547 | 0 | 308 | 3.2 | 8.0 | 0.00 | 0.00 | 0.00 | 54 | 986.4 |
| 20260506030047 | 0 | 291 | 4.8 | 9.7 | 0.00 | 0.00 | 0.00 | 53 | 986.5 |
| 20260506025548 | 0 | 320 | 6.4 | 9.7 | 0.00 | 0.00 | 0.00 | 52 | 986.4 |
| 20260506025047 | 0 | 307 | 4.8 | 9.7 | 0.00 | 0.00 | 0.00 | 52 | 986.5 |
| 20260506024547 | 0 | 323 | 4.8 | 12.9 | 0.00 | 0.00 | 0.00 | 52 | 986.4 |
| 20260506024049 | 0 | 331 | 4.8 | 12.9 | 0.00 | 0.00 | 0.00 | 52 | 986.4 |
| 20260506023547 | 0 | 328 | 8.0 | 14.5 | 0.00 | 0.00 | 0.00 | 52 | 986.4 |
| 20260506023053 | 1 | 310 | 6.4 | 16.1 | 0.00 | 0.00 | 0.00 | 51 | 986.4 |
| 20260506022546 | 1 | 346 | 8.0 | 14.5 | 0.00 | 0.00 | 0.00 | 51 | 986.3 |
| 20260506022045 | 1 | 325 | 6.4 | 16.1 | 0.00 | 0.00 | 0.00 | 50 | 986.3 |
| 20260506021544 | 1 | 333 | 9.7 | 19.3 | 0.00 | 0.00 | 0.00 | 50 | 986.3 |
| 20260506021046 | 1 | 326 | 12.9 | 19.3 | 0.00 | 0.00 | 0.00 | 49 | 986.1 |
| 20260506020544 | 1 | 306 | 9.7 | 17.7 | 0.00 | 0.00 | 0.00 | 49 | 986.2 |
| 20260506020113 | 1 | 298 | 6.4 | 17.7 | 0.00 | 0.00 | 0.00 | 49 | 986.1 |
| 20260506015546 | 1 | 338 | 9.7 | 17.7 | 0.00 | 0.00 | 0.00 | 48 | 986.1 |
| 20260506015044 | 1 | 313 | 11.3 | 20.9 | 0.00 | 0.00 | 0.00 | 48 | 986.0 |
| 20260506014544 | 1 | 305 | 12.9 | 20.9 | 0.00 | 0.00 | 0.00 | 48 | 985.9 |
| 20260506014042 | 1 | 310 | 11.3 | 17.7 | 0.00 | 0.00 | 0.00 | 48 | 985.9 |
| 20260506013542 | 1 | 322 | 8.0 | 20.9 | 0.00 | 0.00 | 0.00 | 48 | 985.8 |
| 20260506013041 | 1 | 305 | 14.5 | 20.9 | 0.00 | 0.00 | 0.00 | 48 | 985.8 |
| 20260506012541 | 2 | 343 | 12.9 | 22.5 | 0.00 | 0.00 | 0.00 | 48 | 985.8 |
| 20260506012041 | 2 | 341 | 12.9 | 24.1 | 0.00 | 0.00 | 0.00 | 48 | 985.7 |
| 20260506011545 | 2 | 328 | 16.1 | 24.1 | 0.00 | 0.00 | 0.00 | 48 | 985.6 |
| 20260506011040 | 2 | 316 | 12.9 | 22.5 | 0.00 | 0.00 | 0.00 | 48 | 985.7 |
| 20260506010539 | 2 | 344 | 12.9 | 22.5 | 0.00 | 0.00 | 0.00 | 48 | 985.6 |
| 20260506010039 | 2 | 295 | 12.9 | 22.5 | 0.00 | 0.00 | 0.00 | 48 | 985.6 |
| 20260506005539 | 2 | 340 | 12.9 | 25.7 | 0.00 | 0.00 | 0.00 | 47 | 985.5 |
| 20260506005038 | 2 | 335 | 12.9 | 25.7 | 0.00 | 0.00 | 0.00 | 47 | 985.4 |
| 20260506004542 | 2 | 319 | 14.5 | 27.4 | 0.00 | 0.00 | 0.00 | 47 | 985.4 |
| 20260506004037 | 2 | 324 | 17.7 | 32.2 | 0.00 | 0.00 | 0.00 | 46 | 985.4 |
| 20260506003537 | 2 | 303 | 16.1 | 29.0 | 0.00 | 0.00 | 0.00 | 46 | 985.3 |
| 20260506003038 | 2 | 341 | 14.5 | 29.0 | 0.00 | 0.00 | 0.00 | 46 | 985.3 |
| 20260506002538 | 2 | 282 | 14.5 | 25.7 | 0.00 | 0.00 | 0.00 | 47 | 985.3 |
| 20260506002037 | 2 | 336 | 16.1 | 25.7 | 0.00 | 0.00 | 0.00 | 47 | 985.3 |
| 20260506001545 | 2 | 301 | 16.1 | 29.0 | 0.00 | 0.00 | 0.00 | 47 | 985.3 |
| 20260506001036 | 2 | 303 | 19.3 | 29.0 | 0.00 | 0.00 | 0.00 | 46 | 985.3 |
| 20260506000536 | 2 | 321 | 19.3 | 33.8 | 0.00 | 0.00 | 0.00 | 46 | 985.2 |
| 20260506000052 | 2 | 336 | 14.5 | 27.4 | 0.00 | 0.00 | 0.00 | 46 | 985.3 |
| 20260505235538 | 2 | 304 | 17.7 | 29.0 | 0.00 | 0.00 | 0.00 | 45 | 985.2 |
| 20260505235037 | 2 | 309 | 19.3 | 29.0 | 0.00 | 0.00 | 0.00 | 44 | 985.2 |
| 20260505234540 | 2 | 307 | 17.7 | 27.4 | 0.00 | 0.00 | 0.00 | 44 | 985.2 |
| 20260505234034 | 2 | 320 | 17.7 | 25.7 | 0.00 | 0.00 | 0.00 | 43 | 985.0 |
| 20260505233533 | 2 | 311 | 14.5 | 25.7 | 0.00 | 0.00 | 0.00 | 44 | 985.1 |
| 20260505233034 | 2 | 299 | 14.5 | 25.7 | 0.00 | 0.00 | 0.00 | 44 | 985.0 |
| 20260505232537 | 2 | 297 | 14.5 | 25.7 | 0.00 | 0.00 | 0.00 | 44 | 985.1 |
| 20260505232033 | 2 | 327 | 9.7 | 24.1 | 0.00 | 0.00 | 0.00 | 45 | 985.0 |
| 20260505231532 | 2 | 12 | 6.4 | 22.5 | 0.00 | 0.00 | 0.00 | 44 | 985.1 |
| 20260505231033 | 2 | 17 | 9.7 | 22.5 | 0.00 | 0.00 | 0.00 | 45 | 985.1 |
| 20260505230532 | 2 | 344 | 9.7 | 22.5 | 0.00 | 0.00 | 0.00 | 45 | 985.2 |
| 20260505230041 | 2 | 40 | 11.3 | 22.5 | 0.00 | 0.00 | 0.00 | 45 | 985.1 |
| 20260505225532 | 2 | 351 | 14.5 | 22.5 | 0.00 | 0.00 | 0.00 | 45 | 985.1 |
| 20260505225032 | 2 | 336 | 16.1 | 22.5 | 0.00 | 0.00 | 0.00 | 45 | 985.0 |
| 20260505224542 | 2 | 350 | 12.9 | 25.7 | 0.00 | 0.00 | 0.00 | 45 | 985.0 |
| 20260505224031 | 2 | 330 | 17.7 | 27.4 | 0.00 | 0.00 | 0.00 | 45 | 985.1 |
| 20260505223531 | 2 | 320 | 16.1 | 27.4 | 0.00 | 0.00 | 0.00 | 46 | 985.1 |
| 20260505223037 | 2 | 350 | 14.5 | 25.7 | 0.00 | 0.00 | 0.00 | 46 | 985.1 |
| 20260505222532 | 2 | 292 | 17.7 | 30.6 | 0.00 | 0.00 | 0.00 | 45 | 985.0 |
| 20260505222033 | 2 | 323 | 17.7 | 30.6 | 0.00 | 0.00 | 0.00 | 45 | 984.9 |
| 20260505221531 | 2 | 302 | 16.1 | 30.6 | 0.00 | 0.00 | 0.00 | 45 | 984.9 |
| 20260505221030 | 2 | 300 | 17.7 | 30.6 | 0.00 | 0.00 | 0.00 | 45 | 984.8 |
| 20260505220530 | 3 | 321 | 16.1 | 27.4 | 0.00 | 0.00 | 0.00 | 45 | 984.7 |
| 20260505220029 | 3 | 322 | 17.7 | 27.4 | 0.00 | 0.00 | 0.00 | 46 | 984.8 |
| 20260505215530 | 2 | 351 | 11.3 | 27.4 | 0.00 | 0.00 | 0.00 | 47 | 984.8 |
| 20260505215027 | 2 | 317 | 19.3 | 29.0 | 0.00 | 0.00 | 0.00 | 47 | 984.9 |
| 20260505214527 | 2 | 318 | 17.7 | 29.0 | 0.00 | 0.00 | 0.00 | 47 | 985.0 |
| 20260505214029 | 2 | 316 | 16.1 | 25.7 | 0.00 | 0.00 | 0.00 | 47 | 985.0 |
| 20260505213525 | 2 | 312 | 14.5 | 27.4 | 0.00 | 0.00 | 0.00 | 48 | 985.0 |
| 20260505213028 | 2 | 319 | 17.7 | 30.6 | 0.00 | 0.00 | 0.00 | 47 | 984.9 |
| 20260505212526 | 2 | 346 | 20.9 | 30.6 | 0.00 | 0.00 | 0.00 | 47 | 984.9 |
| 20260505212026 | 2 | 319 | 16.1 | 32.2 | 0.00 | 0.00 | 0.00 | 47 | 984.8 |
| 20260505211531 | 2 | 12 | 16.1 | 32.2 | 0.00 | 0.00 | 0.00 | 46 | 984.8 |
| 20260505211025 | 2 | 310 | 14.5 | 25.7 | 0.00 | 0.00 | 0.00 | 46 | 984.6 |
| 20260505210524 | 2 | 311 | 14.5 | 30.6 | 0.00 | 0.00 | 0.00 | 47 | 984.7 |
| 20260505210024 | 2 | 309 | 17.7 | 30.6 | 0.00 | 0.00 | 0.00 | 46 | 984.5 |
| 20260505205530 | 2 | 298 | 12.9 | 32.2 | 0.00 | 0.00 | 0.00 | 47 | 984.6 |
| 20260505205027 | 1 | 331 | 20.9 | 32.2 | 0.00 | 0.00 | 0.00 | 47 | 984.7 |
| 20260505204523 | 2 | 360 | 16.1 | 30.6 | 0.00 | 0.00 | 0.00 | 48 | 984.6 |
| 20260505204026 | 1 | 340 | 17.7 | 30.6 | 0.00 | 0.00 | 0.00 | 48 | 984.7 |
| 20260505203522 | 2 | 297 | 17.7 | 29.0 | 0.00 | 0.00 | 0.00 | 47 | 984.7 |
| 20260505203023 | 1 | 326 | 17.7 | 30.6 | 0.00 | 0.00 | 0.00 | 48 | 984.7 |
| 20260505202523 | 2 | 304 | 14.5 | 30.6 | 0.00 | 0.00 | 0.00 | 49 | 984.6 |
| 20260505202028 | 2 | 302 | 19.3 | 30.6 | 0.00 | 0.00 | 0.00 | 47 | 984.7 |
| 20260505201520 | 1 | 355 | 16.1 | 30.6 | 0.00 | 0.00 | 0.00 | 48 | 984.6 |
| 20260505201021 | 1 | 10 | 17.7 | 29.0 | 0.00 | 0.00 | 0.00 | 47 | 984.6 |
| 20260505200521 | 1 | 313 | 16.1 | 32.2 | 0.00 | 0.00 | 0.00 | 46 | 984.6 |
| 20260505200022 | 1 | 300 | 17.7 | 32.2 | 0.00 | 0.00 | 0.00 | 45 | 984.7 |
| 20260505195520 | 1 | 13 | 19.3 | 32.2 | 0.00 | 0.00 | 0.00 | 45 | 984.5 |
| 20260505195020 | 2 | 343 | 17.7 | 30.6 | 0.00 | 0.00 | 0.00 | 44 | 984.5 |
| 20260505194519 | 1 | 311 | 17.7 | 30.6 | 0.00 | 0.00 | 0.00 | 46 | 984.4 |
| 20260505194021 | 1 | 318 | 19.3 | 33.8 | 0.00 | 0.00 | 0.00 | 45 | 984.6 |
| 20260505193517 | 1 | 292 | 17.7 | 33.8 | 0.00 | 0.00 | 0.00 | 45 | 984.6 |
| 20260505193016 | 1 | 322 | 16.1 | 30.6 | 0.00 | 0.00 | 0.00 | 45 | 984.6 |
| 20260505192518 | 1 | 303 | 17.7 | 30.6 | 0.00 | 0.00 | 0.00 | 44 | 984.6 |
| 20260505192016 | 1 | 338 | 16.1 | 37.0 | 0.00 | 0.00 | 0.00 | 46 | 984.5 |
| 20260505191518 | 1 | 346 | 17.7 | 27.4 | 0.00 | 0.00 | 0.00 | 46 | 984.5 |
| 20260505191014 | 1 | 317 | 20.9 | 30.6 | 0.00 | 0.00 | 0.00 | 47 | 984.6 |
| 20260505190512 | 0 | 318 | 20.9 | 32.2 | 0.00 | 0.00 | 0.00 | 47 | 984.4 |
| 20260505190013 | 0 | 294 | 17.7 | 30.6 | 0.00 | 0.00 | 0.00 | 46 | 984.4 |
| 20260505185513 | 0 | 319 | 20.9 | 30.6 | 0.00 | 0.00 | 0.00 | 47 | 984.4 |
| 20260505185012 | 0 | 299 | 20.9 | 30.6 | 0.00 | 0.00 | 0.00 | 46 | 984.3 |
| 20260505184512 | 1 | 338 | 19.3 | 30.6 | 0.00 | 0.00 | 0.00 | 46 | 984.3 |
| 20260505184011 | 1 | 298 | 20.9 | 27.4 | 0.00 | 0.00 | 0.00 | 46 | 984.3 |
| 20260505183514 | 1 | 298 | 17.7 | 25.7 | 0.00 | 0.00 | 0.00 | 46 | 984.3 |
| 20260505183013 | 0 | 304 | 17.7 | 32.2 | 0.00 | 0.00 | 0.00 | 45 | 984.2 |
| 20260505182513 | 0 | 346 | 17.7 | 32.2 | 0.00 | 0.00 | 0.00 | 46 | 984.3 |
| 20260505182013 | 0 | 307 | 19.3 | 27.4 | 0.00 | 0.00 | 0.00 | 46 | 984.2 |
| 20260505181509 | 0 | 307 | 17.7 | 29.0 | 0.00 | 0.00 | 0.00 | 47 | 984.2 |
| 20260505181008 | 0 | 339 | 19.3 | 29.0 | 0.00 | 0.00 | 0.00 | 48 | 984.3 |
| 20260505180507 | 0 | 313 | 16.1 | 29.0 | 0.00 | 0.00 | 0.00 | 48 | 984.4 |
| 20260505180007 | 0 | 318 | 19.3 | 29.0 | 0.00 | 0.00 | 0.00 | 48 | 984.3 |
| 20260505175507 | 0 | 307 | 19.3 | 30.6 | 0.00 | 0.00 | 0.00 | 48 | 984.4 |
| 20260505175009 | 0 | 315 | 19.3 | 30.6 | 0.00 | 0.00 | 0.00 | 50 | 984.4 |
| 20260505174506 | 0 | 309 | 19.3 | 32.2 | 0.00 | 0.00 | 0.00 | 50 | 984.3 |
| 20260505174010 | 0 | 318 | 20.9 | 32.2 | 0.00 | 0.00 | 0.00 | 49 | 984.2 |
| 20260505173505 | 0 | 320 | 17.7 | 32.2 | 0.00 | 0.00 | 0.00 | 49 | 984.2 |
| 20260505173004 | 0 | 289 | 22.5 | 32.2 | 0.00 | 0.00 | 0.00 | 48 | 984.1 |
| 20260505172503 | 0 | 340 | 19.3 | 30.6 | 0.00 | 0.00 | 0.00 | 48 | 984.0 |
| 20260505172003 | 0 | 291 | 20.9 | 30.6 | 0.00 | 0.00 | 0.00 | 47 | 984.0 |
| 20260505171502 | 0 | 331 | 17.7 | 32.2 | 0.00 | 0.00 | 0.00 | 48 | 983.9 |
| 20260505171002 | 0 | 309 | 19.3 | 32.2 | 0.00 | 0.00 | 0.00 | 47 | 984.0 |
| 20260505170501 | 0 | 324 | 16.1 | 30.6 | 0.00 | 0.00 | 0.00 | 49 | 983.9 |
| 20260505170002 | 0 | 297 | 17.7 | 33.8 | 0.00 | 0.00 | 0.00 | 48 | 983.9 |
| 20260505165501 | 0 | 321 | 19.3 | 33.8 | 0.00 | 0.00 | 0.00 | 46 | 983.8 |
| 20260505165001 | 0 | 306 | 19.3 | 33.8 | 0.00 | 0.00 | 0.00 | 47 | 983.9 |
| 20260505164601 | 0 | 299 | 19.3 | 33.8 | 0.00 | 0.00 | 0.00 | 47 | 983.9 |
| 20260505164101 | 0 | 333 | 20.9 | 35.4 | 0.00 | 0.00 | 0.00 | 47 | 983.8 |
| 20260505163604 | 0 | 315 | 20.9 | 35.4 | 0.00 | 0.00 | 0.00 | 47 | 983.9 |
| 20260505163101 | 0 | 320 | 19.3 | 33.8 | 0.00 | 0.00 | 0.00 | 48 | 983.9 |
| 20260505162600 | 0 | 322 | 20.9 | 33.8 | 0.00 | 0.00 | 0.00 | 48 | 983.9 |
| 20260505162100 | 0 | 304 | 19.3 | 29.0 | 0.00 | 0.00 | 0.00 | 48 | 983.7 |
| 20260505161558 | 0 | 303 | 17.7 | 32.2 | 0.00 | 0.00 | 0.00 | 47 | 983.6 |
| 20260505161059 | 0 | 291 | 19.3 | 32.2 | 0.00 | 0.00 | 0.00 | 46 | 983.5 |
| 20260505160557 | 0 | 306 | 14.5 | 30.6 | 0.00 | 0.00 | 0.00 | 46 | 983.5 |
| 20260505153057 | 0 | 342 | 20.9 | 30.6 | 0.00 | 0.00 | 0.00 | 48 | 983.3 |
| 20260505152555 | 0 | 288 | 16.1 | 32.2 | 0.00 | 0.00 | 0.00 | 47 | 983.4 |
| 20260505152054 | 0 | 302 | 19.3 | 32.2 | 0.00 | 0.00 | 0.00 | 47 | 983.4 |
| 20260505151559 | 0 | 350 | 19.3 | 29.0 | 0.00 | 0.00 | 0.00 | 47 | 983.3 |
| 20260505151057 | 0 | 323 | 19.3 | 29.0 | 0.00 | 0.00 | 0.00 | 48 | 983.3 |
| 20260505150553 | 0 | 305 | 17.7 | 25.7 | 0.00 | 0.00 | 0.00 | 49 | 983.2 |
| 20260505140547 | 0 | 325 | 16.1 | 27.4 | 0.00 | 0.00 | 0.00 | 49 | 982.8 |